Regional Weather Roundup
Issued by NWS

Home | Current Version | Previous Version | Text Only | Print | Product List | Glossary On
Versions: 1 2 3 4 5 6 7 8 9 10 11 12 13 14 15 16 17 18 19 20 21 22 23 24 25 26 27 28 29 30 31 32 33 34 35 36 37 38 39 40 41 42 43 44 45 46 47 48 49 50
000
ASUS43 KDTX 221901
RWRMI
MICHIGAN HOURLY REGIONAL WEATHER ROUNDUP
NATIONAL WEATHER SERVICE DETROIT/PONTIAC MI
200 PM EST MON JAN 22 2018

NOTE: "FAIR" INDICATES FEW OR NO CLOUDS BELOW 12,000 FEET WITH NO
SIGNIFICANT WEATHER AND/OR OBSTRUCTION TO VISIBILITY.

MIZ047>049-052>055-059>063-066>070-074>076-081>083-222000-
SOUTHEAST LOWER MICHIGAN

CITY           SKY/WX    TMP DP  RH WIND       PRES   REMARKS
ADRIAN         LGT RAIN  50  46  86 SW14      29.68F
ALMA           LGT SNOW  36  36 100 E5        29.65F WCI  32
ANN ARBOR      LGT RAIN  50  48  93 S6        29.67F
BAD AXE        MIX PCPN  36  36  99 SE6       29.70F VSB 1   WCI  31
CARO           LGT RAIN  42  41  98 SE5       29.67F
DETROIT CITY   PTSUNNY   53  45  74 S14G20    29.70F
DETROIT        CLOUDY    54  47  77 S13       29.69F
FLINT          CLOUDY    48  45  89 SE7       29.65F
GROSSE ILE     CLOUDY    40  38  94 S6        29.70F
HILLSDALE      CLOUDY    48  46  93 S9G20     29.64F
HOWELL         CLOUDY    51  48  90 S12G17    29.64F

CITY           SKY/WX    TMP DP  RH WIND       PRES   REMARKS
JACKSON        PTSUNNY   52  48  86 S18G28    29.63F
LAMBERTVILLE   CLOUDY    56  46  67 S12G18    29.68F
LANSING        FOG       44  44 100 E5        29.63F VSB 1
LAPEER         DRIZZLE   46  45  95 SE3       29.67F
MT. CLEMENS    CLOUDY    46  41  81 SE7       29.72F
PONTIAC        LGT RAIN  50  48  93 S12       29.67F
PORT HOPE        N/A     35  34  96 SE14      29.69F WCI  26
PORT HURON     FAIR      48  45  87 SE10      29.72F
TRI CITIES     LGT RAIN  36  36 100 NE6       29.67F VSB 1/2 WCI  31
MIDLAND        DRIZZLE   36  35  99 E7        29.66F WCI  30
TROY           PTSUNNY   52  47  83 S7        29.70F
SAGINAW HB     RAIN      36  36 100 NE3       29.66F
$$
MIZ043>046-050>051-056>058-064>065-071>073-077>080-222000-
SOUTHWEST LOWER MICHIGAN

CITY           SKY/WX    TMP DP  RH WIND       PRES   REMARKS
BATTLE CREEK   CLOUDY    52  48  86 S15G23    29.60F
BENTON HARBOR  CLOUDY    53  48  83 S13G23    29.54F
BIG RAPIDS     LGT SNOW  35  33  92 E5        29.61F WCI  31
COLDWATER      CLOUDY    53  50  91 S12G21    29.62F
FREMONT        DRIZZLE   37  36  93 E8        29.57F WCI  31
HOLLAND        CLOUDY    45  44  97 E7        29.55F FOG
GRAND RAPIDS   CLOUDY    40  40 100 E9        29.59F FOG     WCI  34
IONIA          CLOUDY    37  37 100 NE5       29.61F FOG     WCI  33
KALAMAZOO      CLOUDY    53  48  83 S15       29.59F
LUDINGTON      HVY RAIN  38  38 100 E10       29.56F VSB 1   WCI  30
MARSHALL       CLOUDY    52  49  89 S10G20    29.61F
MOUNT PLEASANT DRIZZLE   36  35  95 NE6       29.65F WCI  31
MUSKEGON       CLOUDY    42  39  89 E10       29.56F FOG
SOUTH HAVEN    CLOUDY    53  49  85 S14G20    29.54F
$$
MIZ016>042-222000-
NORTHERN LOWER MICHIGAN

CITY           SKY/WX    TMP DP  RH WIND       PRES   REMARKS
ALPENA         LGT RAIN  33  32  96 E24G32    29.73F FOG     WCI  20
BEAVER ISLAND  SNOW      29  27  93 E14G28    29.77F VSB 1/2 WCI  18
BELLAIRE       MIX PCPN  35  33  96 NE8       29.69F WCI  28
CADILLAC       LGT RAIN  34  34  99 E10       29.62F WCI  26
CHARLEVOIX     LGT RAIN  32  32 100 E8        29.73F WCI  25
FRANKFORT      DRIZZLE   37  36  96 E10G17    29.60F WCI  30
GAYLORD        FRZ RAIN  32  32 100 E8G21     29.68F FOG     WCI  25
GRAYLING       LGT RAIN  33  32  94 E14G20    29.69F WCI  23
HARBOR SPRINGS SNOW      29  28  96 NE17G29   29.73F VSB 1/2 WCI  17
HOUGHTON LAKE  LGT RAIN  35  34  96 E13       29.66F FOG     WCI  26
MANISTEE       LGT RAIN  37  36  96 E13       29.58F FOG     WCI  29
OSCODA         LGT SNOW  35  34  98 E12       29.72F WCI  26
PELLSTON       SNOW      29  27  92 E9G23     29.79F VSB 1/4 WCI  20
ROGERS CITY    LGT SNOW  31  29  94 E21G29    29.77F VSB 1   WCI  18
TRAVERSE CITY  LGT RAIN  36  34  92 E6        29.66F FOG     WCI  31
$$
MIZ007>008-015-222000-
EASTERN UPPER MICHIGAN

CITY           SKY/WX    TMP DP  RH WIND       PRES   REMARKS
KINROSS        LGT SNOW  26  24  92 E17       29.82F VSB 3/4 WCI  13
MACKINAC ISLAN LGT SNOW  27  27  97 E18G25    29.80F VSB 3/4 WCI  14
NEWBERRY       LGT SNOW  26  25  96 NE10      29.82F WCI  16
S. S. MARIE    LGT SNOW  30  22  72 NE8       29.85F WCI  22
MUNISING         N/A     29  28  96 NE15      29.84F WCI  18
$$
MIZ004>006-011>014-085-222000-
CENTRAL UPPER MICHIGAN

CITY           SKY/WX    TMP DP  RH WIND       PRES   REMARKS
ESCANABA       SNOW      30  28  92 N14G23    29.73F VSB 1/2 WCI  19
MENOMINEE      LGT SNOW  31  29  92 NE30G37   29.67F FOG     WCI  16
SAWYER-GWINN   LGT SNOW  27  25  93 NE17      29.81F WCI  14
$$
MIZ001>003-009>011-084-222000-
WESTERN UPPER MICHIGAN

CITY           SKY/WX    TMP DP  RH WIND       PRES   REMARKS
IRON MOUNTAIN  SNOW      31  28  89 N10G22    29.71F VSB 1/2 WCI  22
HOUGHTON       CLOUDY    26  22  84 NE15      29.88F WCI  14
COPPER HARBOR    N/A     26  22  84 E15G23    29.95F WCI  14
IRONWOOD       LGT SNOW  26  24  92 NE14G21   29.83F FOG     WCI  14
$$

ABBREVIATIONS USED IN REMARKS
   TC - TEMPERATURE IN CELSIUS
  WCI - WIND CHILL INDEX
   HX - HEAT INDEX
  VSB - VISIBILITY




USA.gov is the U.S. government's official web portal to all federal, state and local government web resources and services.